Regional Weather Roundup
Issued by NWS Upton, NY

Current Version | Previous Version | Text Only | Print | Product List | Glossary Off
Versions: 1 2 3 4 5 6 7 8 9 10 11 12 13 14 15 16 17 18 19 20 21 22 23 24 25 26 27 28 29 30 31 32 33 34 35 36 37 38 39 40 41 42 43 44 45 46 47 48 49 50
000 ASUS41 KOKX 271204 RWROKX REGIONAL WEATHER ROUNDUP NATIONAL WEATHER SERVICE NEW YORK NY 800 AM EDT WED JUL 27 2016 NOTE: "FAIR" INDICATES FEW OR NO CLOUDS BELOW 12,000 FEET WITH NO SIGNIFICANT WEATHER AND/OR OBSTRUCTIONS TO VISIBILITY. NYZ071-072-176-178-NJZ106-104-271300- NEW YORK CITY METRO AREA CITY SKY/WX TMP DP RH WIND PRES REMARKS Central Park MOSUNNY 78 60 53 NE5 29.99R LaGuardia APRT PTSUNNY 78 61 55 NE6 29.95S Kennedy INTL PTSUNNY 79 60 52 N7 29.96S Newark/Liberty PTSUNNY 80 63 55 N6 29.96R Bronx Bot Gard N/A 79 61 53 NW3 29.99R Wall St Helipt PTSUNNY 81 61 50 NE9 29.96S Teterboro MOSUNNY 78 62 57 CALM 29.95S $$ NYZ177-179-078>081-271300- LONG ISLAND NEW YORK CITY SKY/WX TMP DP RH WIND PRES REMARKS Farmingdale PTSUNNY 76 62 62 MISG 29.95S MacArthur/ISP PTSUNNY 78 63 59 N8 29.94S Shirley PTSUNNY 77 65 66 N3 29.95S Riverhead NOT AVBL Westhampton PTSUNNY 77 65 66 N3 29.96S Southhampton N/A 79 66 65 N3 29.91S Bridgehampton N/A 72 66 83 CALM 29.94S East Hampton FAIR 75 66 72 N3 29.94S Montauk N/A 74 65 73 W6 29.96R $$ NYZ052-065-067-271300- HUDSON VALLEY CITY SKY/WX TMP DP RH WIND PRES REMARKS White Plains MOSUNNY 75 63 66 N5 29.96F Newburgh SUNNY 68 66 94 VRB5 30.00R Montgomery SUNNY 69 64 84 CALM 29.99R Poughkeepsie SUNNY 70 64 81 CALM 29.97R Albany SUNNY 72 62 71 S5 29.97S $$ NJZ001-105-106-008-010-013-015-019>022-104-271300- NEW JERSEY CITY SKY/WX TMP DP RH WIND PRES REMARKS Newark/Liberty PTSUNNY 80 63 55 N6 29.96R Teterboro MOSUNNY 78 62 57 CALM 29.95S Caldwell SUNNY 74 65 73 NE3 29.98R Morristown PTSUNNY 73 66 78 CALM 29.98R Somerville CLOUDY 73 65 75 NW3 29.95S Linden FAIR 77 62 60 CALM 29.97S Sussex SUNNY 68 65 90 CALM 29.99S Abdover N/A 69 65 86 CALM 30.00R Trenton CLOUDY 76 64 66 N5 29.96R Millville CLOUDY 79 72 79 E6 29.93F Atlantic City PTSUNNY 79 70 74 E3 29.94S Wrightstown CLOUDY 73 67 80 NE2 29.93S Toms River CLOUDY 73 69 87 NE3 29.95F Belmar CLOUDY 77 64 64 NE6 29.96S $$ PAZ047>061-062-071-271300- EASTERN PENNSYLVANIA CITY SKY/WX TMP DP RH WIND PRES REMARKS Philadelphia CLOUDY 79 65 62 NE5 29.95S Allentown PTSUNNY 74 65 73 CALM 29.99R Scranton SUNNY 69 61 75 CALM 30.02S $$ CTZ002-004>006-009-010-012-RIZ004-006-007-MAZ004-011-015-271300- SOUTHERN NEW ENGLAND IN CT CITY SKY/WX TMP DP RH WIND PRES REMARKS Bradley INTL MOSUNNY 77 61 57 NW3 29.94S Hartford SUNNY 76 66 71 CALM 29.95S Danbury MOSUNNY 72 62 71 CALM 29.98S Wtrbury/Oxford NOT AVBL Bridgeport SUNNY 78 62 57 CALM 29.95S Meriden SUNNY 76 63 64 CALM 29.95F New Haven MOSUNNY 76 63 64 N5 29.95S Chester FAIR 77 63 61 N7 29.96S Groton SUNNY 78 64 61 N3 29.93S Wilimantic NOT AVBL IN RI CITY SKY/WX TMP DP RH WIND PRES REMARKS Providence MOSUNNY 79 61 53 N7 29.94S Block Island MOSUNNY 75 64 68 N3 29.95R Westerly SUNNY 78 62 57 CALM 29.94S IN MA CITY SKY/WX TMP DP RH WIND PRES REMARKS Boston MOSUNNY 79 61 53 NW6 29.93R Worchester SUNNY 75 58 55 N3 29.98S Westfield SUNNY 74 61 63 CALM 29.95S Provincetown SUNNY 74 65 73 NW6 29.92S Nantucket MOSUNNY 77 64 64 N12 29.91S $$ ANZ330-335-338-340-345-350-353-355-271300- COASTAL MARINE OBSERVATIONS STATION/POSITION TIME SKY/WX TEMP WIND PRES VSBY WAVE AIR SEA DIR/SP/G HT/PER (UTC) (F) (DEG/KT/KT) (MB) (MI) (FT/S) NY HARB ENTRANCE 1050 75 73 10/ 4/ 4 1013.9 2/ 7 20S FIRE ISLAND 1050 75 75 30/ 6/ 6 1013.5 2/ 6 GREAT SOUTH BAY 1100 75 81 350/ 6/ 6 N/A 23 SSW MONTAUK P 1050 70 69 310/ 4/ 4 1014.1 2/ 6 15 E BARNEGAT LI 1122 77 N/A 2/ 6 HUDSON CANYON 1050 78 77 1013.5 2/ 6 KINGS POINT 1100 74 72 1014.2 EXECUTION ROCKS 1100 73 340/ 4/ 4 N/A CENTRAL LI SOUND 1100 74 73 280/ 4/ 6 N/A 0 EASTERN LI SOUND 1100 79 68 270/ 2/ 4 N/A ROBBINS REEF 1112 77 350/ 3/ 3 1013.6 $$ >>>>>>>>>>>>>>>>>>>>>>>>>>>> KEY <<<<<<<<<<<<<<<<<<<<<<<<<<< > < > SKY/WX - Sky Condition/Present Weather < > TMP - Temperature in Fahrenheit < > DP - Dew Point in Fahrenheit < > RH - Relative Humidity in Percent < > WIND - Direction (from) and Speed in MPH < > PRES - Mean Sea Level Pressure (inches of Hg) < > WCI - Wind Chill Index < > VSB - VISIBILITY IN MILES < > HX - HEAT INDEX < > TC - TEMPERATURE IN CELSIUS < > VRB - VARIABLE WIND DIRECTION < > < >>>>>>>>>>>>>>>>>>>>>>>>>>>> KEY <<<<<<<<<<<<<<<<<<<<<<<<<<<

USA.gov is the U.S. government's official web portal to all federal, state and local government web resources and services.